Weather WX

World > North America > United States > Illinois

Chesterville, Illinois Regional Weather

Lat: 39.68N, Lon: 88.4W
Wx Zone: ILZ055
Feedback

Chesterville, IL Regional Weather

Expires:201906210000;;810539
ASUS43 KLOT 202309
RWRIL 

ILLINOIS REGIONAL WEATHER ROUNDUP
NATIONAL WEATHER SERVICE CHICAGO/ROMEOVILLE IL
600 PM CDT THU JUN 20 2019

NOTE: "FAIR" INDICATES FEW OR NO CLOUDS BELOW 12,000 FEET WITH NO
SIGNIFICANT WEATHER AND/OR OBSTRUCTIONS TO VISIBILITY.

* THESE STATIONS ARE NOT UNDER NWS QUALITY CONTROL. THEY ALSO MAY NOT
  REPORT WEATHER SUCH AS PRECIPITATION OR FOG.


ILZ033-039-045-046-055>057-062-063-210000-
EAST-CENTRAL ILLINOIS
  
CITY           SKY/WX    TMP DP  RH WIND       PRES   REMARKS
CHAMPAIGN      FAIR      74  61  63 N13       29.82R                  
DANVILLE*      CLOUDY    68  63  84 N10       29.78F                  
RANTOUL*       FAIR      71  63  73 N9        29.82R                  
MATTOON        FAIR      75  58  55 W9        29.80S                  
$$


SKY/WX - Weather  TMP - Temperature  DP - Dew Point  RH - Relative Humidity
WIND - Wind Direction/Speed PRES - Barometric Pressure VSB - Visibility
WCI - Wind Chill Index E13G22 Wind - East Wind 13 mph/Gusts of 22 mph